Location: Recife
(8.0585°S, 34.8848°W)
Time: 11:14:07
(UTC-03:00)

SR - Pass Details

Date: 16 April 2026
Orbit: 568 x 852 km, 66.7° (Epoch: 12 May)

Event Time Altitude Azimuth Distance (km) Brightness Sun altitude
Rises 11:01:25 0° 179° (S) 2,780 ? 71.1°
Reaches altitude 10° 11:04:04 10° 163° (SSE) 1,870 ? 71.3°
Maximum altitude 11:07:16 21° 112° (ESE) 1,289 ? 71.4°
Drops below altitude 10° 11:10:29 10° 61° (ENE) 1,882 ? 71.5°
Sets 11:13:09 0° 45° (NE) 2,801 ? 71.6°
